Location: Unspecified
(52.4292°N, 19.3359°E)
Time: 23:46:18
(UTC+02:00)

SR - Pass Details

Date: 01 June 2024
Orbit: 580 x 858 km, 66.7° (Epoch: 12 June)

Event Time Altitude Azimuth Distance (km) Brightness Sun altitude
Rises 17:14:11 0° 233° (SW) 3,157 ? 30.5°
Reaches altitude 10° 17:16:42 10° 238° (WSW) 2,191 ? 30.1°
Maximum altitude 17:21:32 53° 315° (NW) 833 ? 29.4°
Drops below altitude 10° 17:26:02 10° 33° (NNE) 2,034 ? 28.7°
Sets 17:28:18 0° 39° (NE) 2,909 ? 28.3°
